DB0LC-2 Weather Reports


Display with metric or nautical units.
time (UTC)temp
F
wind
direction
speed
MPH
gust
MPH
rain 1hr
in
rain 24hr
in
rain mn
in
humidity
%
barometer
mb
20260505175255 67 0 0.0 0.0 0.00 0.00 0.00 32 905.5
20260505174230 68 0 0.0 0.0 0.00 0.00 0.00 31 905.5
20260505173140 67 0 0.0 0.0 0.00 0.00 0.00 32 905.5
20260505171104 67 0 0.0 0.0 0.00 0.00 0.00 30 905.3
20260505170032 68 0 0.0 0.0 0.00 0.00 0.00 32 905.2
20260505170030 68 0 0.0 0.0 0.00 0.00 0.00 32 905.2
20260505165003 67 0 0.0 0.0 0.00 0.00 0.00 32 905.0
20260505163911 67 0 0.0 0.0 0.00 0.00 0.00 32 905.0
20260505162826 67 0 0.0 0.0 0.00 0.00 0.00 30 905.0
20260505162824 67 0 0.0 0.0 0.00 0.00 0.00 30 905.1
20260505160706 67 0 0.0 0.0 0.00 0.00 0.00 32 904.8
20260505152443 67 0 0.0 0.0 0.00 0.00 0.00 30 904.8
20260505151442 68 0 0.0 0.0 0.00 0.00 0.00 32 904.8
20260505150416 67 0 0.0 0.0 0.00 0.00 0.00 32 904.8
20260505140152 68 0 0.0 0.0 0.00 0.00 0.00 32 904.9
20260505124942 67 0 0.0 0.0 0.00 0.00 0.00 31 905.1
20260505124940 67 0 0.0 0.0 0.00 0.00 0.00 31 905.2
20260505123911 68 0 0.0 0.0 0.00 0.00 0.00 31 905.2
20260505122911 68 0 0.0 0.0 0.00 0.00 0.00 32 905.1
20260505121900 67 0 0.0 0.0 0.00 0.00 0.00 32 905.3
20260505120847 67 0 0.0 0.0 0.00 0.00 0.00 31 905.4
20260505115835 68 0 0.0 0.0 0.00 0.00 0.00 31 905.3
20260505114837 68 0 0.0 0.0 0.00 0.00 0.00 31 905.4
20260505113800 67 0 0.0 0.0 0.00 0.00 0.00 32 905.4
20260505111721 68 0 0.0 0.0 0.00 0.00 0.00 31 905.6
20260505110657 68 0 0.0 0.0 0.00 0.00 0.00 31 905.6
20260505101538 67 0 0.0 0.0 0.00 0.00 0.00 31 905.9
20260505100442 67 0 0.0 0.0 0.00 0.00 0.00 31 905.7
20260505095418 67 0 0.0 0.0 0.00 0.00 0.00 30 905.8
20260505094355 68 0 0.0 0.0 0.00 0.00 0.00 31 905.6
20260505094353 68 0 0.0 0.0 0.00 0.00 0.00 31 905.7
20260505092318 67 0 0.0 0.0 0.00 0.00 0.00 31 905.8
20260505091231 68 0 0.0 0.0 0.00 0.00 0.00 29 905.9
20260505085039 67 0 0.0 0.0 0.00 0.00 0.00 31 905.9
20260505083932 67 0 0.0 0.0 0.00 0.00 0.00 31 905.9
20260505083930 67 0 0.0 0.0 0.00 0.00 0.00 31 905.8
20260505082838 68 0 0.0 0.0 0.00 0.00 0.00 28 906.0
20260505081832 68 0 0.0 0.0 0.00 0.00 0.00 31 906.0
20260505080753 67 0 0.0 0.0 0.00 0.00 0.00 31 906.1
20260505075703 67 0 0.0 0.0 0.00 0.00 0.00 31 906.0
20260505074601 66 0 0.0 0.0 0.00 0.00 0.00 30 906.2
20260505073524 68 0 0.0 0.0 0.00 0.00 0.00 31 906.3
20260505072457 67 0 0.0 0.0 0.00 0.00 0.00 31 906.2
20260505071422 67 0 0.0 0.0 0.00 0.00 0.00 31 906.3
20260505070332 66 0 0.0 0.0 0.00 0.00 0.00 30 906.3
20260505070330 66 0 0.0 0.0 0.00 0.00 0.00 30 906.4
20260505065307 68 0 0.0 0.0 0.00 0.00 0.00 31 906.3
20260505064232 67 0 0.0 0.0 0.00 0.00 0.00 31 906.4
20260505063236 67 0 0.0 0.0 0.00 0.00 0.00 31 906.3
20260505062205 66 0 0.0 0.0 0.00 0.00 0.00 31 906.4
20260505061149 67 0 0.0 0.0 0.00 0.00 0.00 29 906.5
20260505060128 66 0 0.0 0.0 0.00 0.00 0.00 31 906.4
20260505054050 68 0 0.0 0.0 0.00 0.00 0.00 30 906.5
20260505053021 67 0 0.0 0.0 0.00 0.00 0.00 31 906.4
20260505051924 67 0 0.0 0.0 0.00 0.00 0.00 31 906.4
20260505041530 68 0 0.0 0.0 0.00 0.00 0.00 31 906.4
20260505040453 68 0 0.0 0.0 0.00 0.00 0.00 31 906.5
20260505035419 67 0 0.0 0.0 0.00 0.00 0.00 31 906.7
20260505035417 67 0 0.0 0.0 0.00 0.00 0.00 31 906.6
20260505034315 67 0 0.0 0.0 0.00 0.00 0.00 31 906.7
20260505033214 68 0 0.0 0.0 0.00 0.00 0.00 31 906.8
20260505032149 67 0 0.0 0.0 0.00 0.00 0.00 31 906.8
20260505031049 67 0 0.0 0.0 0.00 0.00 0.00 31 906.7
20260505030025 67 0 0.0 0.0 0.00 0.00 0.00 30 906.8
20260505024957 68 0 0.0 0.0 0.00 0.00 0.00 31 907.1
20260505023938 67 0 0.0 0.0 0.00 0.00 0.00 31 907.1
20260505022900 67 0 0.0 0.0 0.00 0.00 0.00 31 907.3
20260505021903 67 0 0.0 0.0 0.00 0.00 0.00 31 907.3
20260505020900 68 0 0.0 0.0 0.00 0.00 0.00 31 907.5
20260505015848 67 0 0.0 0.0 0.00 0.00 0.00 31 907.4
20260505014803 67 0 0.0 0.0 0.00 0.00 0.00 31 907.5
20260505013753 67 0 0.0 0.0 0.00 0.00 0.00 31 907.7
20260505012726 68 0 0.0 0.0 0.00 0.00 0.00 31 907.7
20260505011715 67 0 0.0 0.0 0.00 0.00 0.00 31 908.0
20260505010636 67 0 0.0 0.0 0.00 0.00 0.00 31 908.0
20260505004455 68 0 0.0 0.0 0.00 0.00 0.00 31 908.3
20260505003343 67 0 0.0 0.0 0.00 0.00 0.00 31 908.4
20260505002310 66 0 0.0 0.0 0.00 0.00 0.00 31 908.5
20260505001222 68 0 0.0 0.0 0.00 0.00 0.00 28 908.5
20260504235020 67 0 0.0 0.0 0.00 0.00 0.00 31 908.6
20260504233919 66 0 0.0 0.0 0.00 0.00 0.00 31 908.6
20260504231721 67 0 0.0 0.0 0.00 0.00 0.00 31 908.8
20260504230711 67 0 0.0 0.0 0.00 0.00 0.00 31 908.9
20260504225645 66 0 0.0 0.0 0.00 0.00 0.00 31 909.2
20260504224631 68 0 0.0 0.0 0.00 0.00 0.00 31 909.3
20260504223609 67 0 0.0 0.0 0.00 0.00 0.00 31 909.3
20260504223607 67 0 0.0 0.0 0.00 0.00 0.00 31 909.4
20260504222537 67 0 0.0 0.0 0.00 0.00 0.00 31 909.3
20260504220441 68 0 0.0 0.0 0.00 0.00 0.00 31 909.5
20260504215402 67 0 0.0 0.0 0.00 0.00 0.00 32 909.5
20260504214405 67 0 0.0 0.0 0.00 0.00 0.00 32 909.6
20260504213352 68 0 0.0 0.0 0.00 0.00 0.00 31 909.5
20260504212337 67 0 0.0 0.0 0.00 0.00 0.00 31 909.7
20260504211337 67 0 0.0 0.0 0.00 0.00 0.00 31 909.7
20260504210325 67 0 0.0 0.0 0.00 0.00 0.00 30 909.7
20260504205312 68 0 0.0 0.0 0.00 0.00 0.00 31 909.5
20260504204320 67 0 0.0 0.0 0.00 0.00 0.00 31 909.6
20260504203247 67 0 0.0 0.0 0.00 0.00 0.00 31 909.5
20260504202235 68 0 0.0 0.0 0.00 0.00 0.00 29 909.5
20260504201225 68 0 0.0 0.0 0.00 0.00 0.00 30 909.5
20260504200200 67 0 0.0 0.0 0.00 0.00 0.00 31 909.5
20260504200158 67 0 0.0 0.0 0.00 0.00 0.00 31 909.7
20260504195133 67 0 0.0 0.0 0.00 0.00 0.00 29 909.5
20260504194108 68 0 0.0 0.0 0.00 0.00 0.00 30 909.4
20260504193059 67 0 0.0 0.0 0.00 0.00 0.00 31 909.3
20260504192031 67 0 0.0 0.0 0.00 0.00 0.00 30 909.3
20260504190021 67 0 0.0 0.0 0.00 0.00 0.00 31 909.3
20260504184957 67 0 0.0 0.0 0.00 0.00 0.00 30 909.2
20260504183947 68 0 0.0 0.0 0.00 0.00 0.00 30 909.3
20260504182948 67 0 0.0 0.0 0.00 0.00 0.00 30 909.4
20260504182946 67 0 0.0 0.0 0.00 0.00 0.00 30 909.5
20260504181944 67 0 0.0 0.0 0.00 0.00 0.00 30 909.5
20260504180944 68 0 0.0 0.0 0.00 0.00 0.00 29 909.7